Data supplied by UK-AIR on 5/4/2008
All Data GMT hour ending 
Status: R =Ratified P=Provisional,P*=As supplied
,,Bristol Centre,,,,,,,,,,,,,,,,,,,,,,,
Date,time,"Carbon monoxide",status,unit,"PM10 particulate matter (Hourly measured)",status,unit,"Nitric oxide",status,unit,"Nitrogen dioxide",status,unit,"Nitrogen oxides as nitrogen dioxide",status,unit,"Ozone",status,unit,"Sulphur dioxide",status,unit
 
01-01-1994,01:00,0.5,R,mgm-3,16,R,ugm-3 (GRAV EQ),3,R,ugm-3,17,R,ugm-3,21,R,ugm-3,48,R,ugm-3,13,R,ugm-3
01-01-1994,02:00,0.3,R,mgm-3,20,R,ugm-3 (GRAV EQ),4,R,ugm-3,25,R,ugm-3,31,R,ugm-3,38,R,ugm-3,16,R,ugm-3
01-01-1994,03:00,0.6,R,mgm-3,16,R,ugm-3 (GRAV EQ),4,R,ugm-3,27,R,ugm-3,32,R,ugm-3,36,R,ugm-3,11,R,ugm-3
01-01-1994,04:00,0.8,R,mgm-3,14,R,ugm-3 (GRAV EQ),3,R,ugm-3,21,R,ugm-3,25,R,ugm-3,40,R,ugm-3,8,R,ugm-3
01-01-1994,05:00,0.9,R,mgm-3,13,R,ugm-3 (GRAV EQ),4,R,ugm-3,21,R,ugm-3,27,R,ugm-3,38,R,ugm-3,5,R,ugm-3
01-01-1994,06:00,0.8,R,mgm-3,18,R,ugm-3 (GRAV EQ),19,R,ugm-3,44,R,ugm-3,73,R,ugm-3,24,R,ugm-3,8,R,ugm-3
01-01-1994,07:00,0.8,R,mgm-3,14,R,ugm-3 (GRAV EQ),5,R,ugm-3,32,R,ugm-3,40,R,ugm-3,20,R,ugm-3,11,R,ugm-3
01-01-1994,08:00,1.3,R,mgm-3,23,R,ugm-3 (GRAV EQ),26,R,ugm-3,50,R,ugm-3,90,R,ugm-3,8,R,ugm-3,16,R,ugm-3
01-01-1994,09:00,1.0,R,mgm-3,25,R,ugm-3 (GRAV EQ),13,R,ugm-3,46,R,ugm-3,65,R,ugm-3,10,R,ugm-3,24,R,ugm-3
01-01-1994,10:00,1.0,R,mgm-3,29,R,ugm-3 (GRAV EQ),15,R,ugm-3,38,R,ugm-3,61,R,ugm-3,18,R,ugm-3,21,R,ugm-3
01-01-1994,11:00,1.6,R,mgm-3,44,R,ugm-3 (GRAV EQ),80,R,ugm-3,69,R,ugm-3,191,R,ugm-3,8,R,ugm-3,43,R,ugm-3
01-01-1994,12:00,4.2,R,mgm-3,70,R,ugm-3 (GRAV EQ),330,R,ugm-3,74,R,ugm-3,579,R,ugm-3,8,R,ugm-3,32,R,ugm-3
01-01-1994,13:00,1.5,R,mgm-3,31,R,ugm-3 (GRAV EQ),76,R,ugm-3,42,R,ugm-3,159,R,ugm-3,16,R,ugm-3,16,R,ugm-3
01-01-1994,14:00,1.7,R,mgm-3,23,R,ugm-3 (GRAV EQ),73,R,ugm-3,44,R,ugm-3,155,R,ugm-3,18,R,ugm-3,13,R,ugm-3
01-01-1994,15:00,2.4,R,mgm-3,21,R,ugm-3 (GRAV EQ),125,R,ugm-3,65,R,ugm-3,256,R,ugm-3,14,R,ugm-3,13,R,ugm-3
01-01-1994,16:00,3.2,R,mgm-3,25,R,ugm-3 (GRAV EQ),196,R,ugm-3,78,R,ugm-3,378,R,ugm-3,12,R,ugm-3,16,R,ugm-3
01-01-1994,17:00,2.9,R,mgm-3,40,R,ugm-3 (GRAV EQ),249,R,ugm-3,76,R,ugm-3,456,R,ugm-3,6,R,ugm-3,19,R,ugm-3
01-01-1994,18:00,3.0,R,mgm-3,34,R,ugm-3 (GRAV EQ),175,R,ugm-3,82,R,ugm-3,350,R,ugm-3,10,R,ugm-3,16,R,ugm-3
01-01-1994,19:00,1.3,R,mgm-3,14,R,ugm-3 (GRAV EQ),54,R,ugm-3,42,R,ugm-3,124,R,ugm-3,22,R,ugm-3,11,R,ugm-3
01-01-1994,20:00,0.7,R,mgm-3,4,R,ugm-3 (GRAV EQ),16,R,ugm-3,32,R,ugm-3,57,R,ugm-3,36,R,ugm-3,3,R,ugm-3
01-01-1994,21:00,0.3,R,mgm-3,0,R,ugm-3 (GRAV EQ),14,R,ugm-3,23,R,ugm-3,44,R,ugm-3,46,R,ugm-3,3,R,ugm-3
01-01-1994,22:00,0.5,R,mgm-3,,,,9,R,ugm-3,17,R,ugm-3,31,R,ugm-3,52,R,ugm-3,3,R,ugm-3
01-01-1994,23:00,0.5,R,mgm-3,,,,10,R,ugm-3,13,R,ugm-3,29,R,ugm-3,52,R,ugm-3,3,R,ugm-3
01-01-1994,24:00,0.3,R,mgm-3,7,R,ugm-3 (GRAV EQ),9,R,ugm-3,27,R,ugm-3,40,R,ugm-3,40,R,ugm-3,3,R,ugm-3
02-01-1994,01:00,0.5,R,mgm-3,8,R,ugm-3 (GRAV EQ),19,R,ugm-3,36,R,ugm-3,65,R,ugm-3,26,R,ugm-3,3,R,ugm-3
02-01-1994,02:00,0.5,R,mgm-3,9,R,ugm-3 (GRAV EQ),3,R,ugm-3,19,R,ugm-3,23,R,ugm-3,52,R,ugm-3,5,R,ugm-3
02-01-1994,03:00,0.3,R,mgm-3,17,R,ugm-3 (GRAV EQ),3,R,ugm-3,8,R,ugm-3,11,R,ugm-3,64,R,ugm-3,5,R,ugm-3
02-01-1994,04:00,0.3,R,mgm-3,29,R,ugm-3 (GRAV EQ),3,R,ugm-3,2,R,ugm-3,6,R,ugm-3,68,R,ugm-3,5,R,ugm-3
02-01-1994,05:00,0.2,R,mgm-3,21,R,ugm-3 (GRAV EQ),4,R,ugm-3,4,R,ugm-3,10,R,ugm-3,70,R,ugm-3,5,R,ugm-3
02-01-1994,06:00,0.3,R,mgm-3,35,R,ugm-3 (GRAV EQ),3,R,ugm-3,2,R,ugm-3,6,R,ugm-3,76,R,ugm-3,3,R,ugm-3
02-01-1994,07:00,0.5,R,mgm-3,39,R,ugm-3 (GRAV EQ),3,R,ugm-3,4,R,ugm-3,8,R,ugm-3,74,R,ugm-3,3,R,ugm-3
02-01-1994,08:00,0.5,R,mgm-3,40,R,ugm-3 (GRAV EQ),3,R,ugm-3,6,R,ugm-3,10,R,ugm-3,72,R,ugm-3,3,R,ugm-3
02-01-1994,09:00,0.5,R,mgm-3,43,R,ugm-3 (GRAV EQ),3,R,ugm-3,6,R,ugm-3,10,R,ugm-3,70,R,ugm-3,0,R,ugm-3
02-01-1994,10:00,0.6,R,mgm-3,40,R,ugm-3 (GRAV EQ),3,R,ugm-3,10,R,ugm-3,13,R,ugm-3,64,R,ugm-3,5,R,ugm-3
02-01-1994,11:00,0.6,R,mgm-3,47,R,ugm-3 (GRAV EQ),5,R,ugm-3,13,R,ugm-3,21,R,ugm-3,60,R,ugm-3,5,R,ugm-3
02-01-1994,12:00,0.6,R,mgm-3,39,R,ugm-3 (GRAV EQ),6,R,ugm-3,13,R,ugm-3,23,R,ugm-3,58,R,ugm-3,8,R,ugm-3
02-01-1994,13:00,0.5,R,mgm-3,38,R,ugm-3 (GRAV EQ),9,R,ugm-3,23,R,ugm-3,36,R,ugm-3,50,R,ugm-3,13,R,ugm-3
02-01-1994,14:00,0.7,R,mgm-3,40,R,ugm-3 (GRAV EQ),8,R,ugm-3,19,R,ugm-3,31,R,ugm-3,52,R,ugm-3,11,R,ugm-3
02-01-1994,15:00,0.6,R,mgm-3,44,R,ugm-3 (GRAV EQ),9,R,ugm-3,21,R,ugm-3,34,R,ugm-3,50,R,ugm-3,11,R,ugm-3
02-01-1994,16:00,0.3,R,mgm-3,35,R,ugm-3 (GRAV EQ),6,R,ugm-3,21,R,ugm-3,31,R,ugm-3,50,R,ugm-3,8,R,ugm-3
02-01-1994,17:00,0.5,R,mgm-3,22,R,ugm-3 (GRAV EQ),8,R,ugm-3,23,R,ugm-3,34,R,ugm-3,48,R,ugm-3,5,R,ugm-3
02-01-1994,18:00,0.8,R,mgm-3,40,R,ugm-3 (GRAV EQ),6,R,ugm-3,19,R,ugm-3,29,R,ugm-3,52,R,ugm-3,3,R,ugm-3
02-01-1994,19:00,0.8,R,mgm-3,38,R,ugm-3 (GRAV EQ),6,R,ugm-3,17,R,ugm-3,27,R,ugm-3,52,R,ugm-3,3,R,ugm-3
02-01-1994,20:00,0.7,R,mgm-3,31,R,ugm-3 (GRAV EQ),5,R,ugm-3,15,R,ugm-3,23,R,ugm-3,54,R,ugm-3,0,R,ugm-3
02-01-1994,21:00,0.5,R,mgm-3,35,R,ugm-3 (GRAV EQ),6,R,ugm-3,15,R,ugm-3,25,R,ugm-3,48,R,ugm-3,0,R,ugm-3
02-01-1994,22:00,0.5,R,mgm-3,36,R,ugm-3 (GRAV EQ),6,R,ugm-3,17,R,ugm-3,27,R,ugm-3,46,R,ugm-3,3,R,ugm-3
02-01-1994,23:00,0.5,R,mgm-3,7,R,ugm-3 (GRAV EQ),3,R,ugm-3,19,R,ugm-3,23,R,ugm-3,54,R,ugm-3,0,R,ugm-3
02-01-1994,24:00,0.5,R,mgm-3,17,R,ugm-3 (GRAV EQ),3,R,ugm-3,13,R,ugm-3,17,R,ugm-3,52,R,ugm-3,3,R,ugm-3
03-01-1994,01:00,0.5,R,mgm-3,25,R,ugm-3 (GRAV EQ),3,R,ugm-3,11,R,ugm-3,15,R,ugm-3,50,R,ugm-3,0,R,ugm-3
03-01-1994,02:00,0.2,R,mgm-3,25,R,ugm-3 (GRAV EQ),1,R,ugm-3,17,R,ugm-3,19,R,ugm-3,48,R,ugm-3,3,R,ugm-3
03-01-1994,03:00,0.2,R,mgm-3,27,R,ugm-3 (GRAV EQ),1,R,ugm-3,17,R,ugm-3,19,R,ugm-3,44,R,ugm-3,3,R,ugm-3
03-01-1994,04:00,0.2,R,mgm-3,30,R,ugm-3 (GRAV EQ),3,R,ugm-3,15,R,ugm-3,19,R,ugm-3,48,R,ugm-3,3,R,ugm-3
03-01-1994,05:00,0.8,R,mgm-3,27,R,ugm-3 (GRAV EQ),11,R,ugm-3,46,R,ugm-3,63,R,ugm-3,22,R,ugm-3,3,R,ugm-3
03-01-1994,06:00,0.7,R,mgm-3,40,R,ugm-3 (GRAV EQ),36,R,ugm-3,61,R,ugm-3,117,R,ugm-3,12,R,ugm-3,5,R,ugm-3
03-01-1994,07:00,0.8,R,mgm-3,29,R,ugm-3 (GRAV EQ),23,R,ugm-3,44,R,ugm-3,78,R,ugm-3,30,R,ugm-3,3,R,ugm-3
03-01-1994,08:00,1.0,R,mgm-3,9,R,ugm-3 (GRAV EQ),13,R,ugm-3,31,R,ugm-3,50,R,ugm-3,40,R,ugm-3,0,R,ugm-3
03-01-1994,09:00,1.3,R,mgm-3,10,R,ugm-3 (GRAV EQ),40,R,ugm-3,46,R,ugm-3,107,R,ugm-3,32,R,ugm-3,3,R,ugm-3
03-01-1994,10:00,0.8,R,mgm-3,8,R,ugm-3 (GRAV EQ),16,R,ugm-3,27,R,ugm-3,52,R,ugm-3,48,R,ugm-3,0,R,ugm-3
03-01-1994,11:00,2.1,R,mgm-3,10,R,ugm-3 (GRAV EQ),95,R,ugm-3,38,R,ugm-3,183,R,ugm-3,32,R,ugm-3,5,R,ugm-3
03-01-1994,12:00,3.2,R,mgm-3,21,R,ugm-3 (GRAV EQ),153,R,ugm-3,71,R,ugm-3,304,R,ugm-3,16,R,ugm-3,11,R,ugm-3
03-01-1994,13:00,2.7,R,mgm-3,17,R,ugm-3 (GRAV EQ),131,R,ugm-3,52,R,ugm-3,252,R,ugm-3,18,R,ugm-3,8,R,ugm-3
03-01-1994,14:00,1.9,R,mgm-3,8,R,ugm-3 (GRAV EQ),60,R,ugm-3,52,R,ugm-3,143,R,ugm-3,30,R,ugm-3,5,R,ugm-3
03-01-1994,15:00,0.7,R,mgm-3,7,R,ugm-3 (GRAV EQ),14,R,ugm-3,31,R,ugm-3,52,R,ugm-3,48,R,ugm-3,3,R,ugm-3
03-01-1994,16:00,0.7,R,mgm-3,16,R,ugm-3 (GRAV EQ),14,R,ugm-3,29,R,ugm-3,50,R,ugm-3,54,R,ugm-3,3,R,ugm-3
03-01-1994,17:00,0.8,R,mgm-3,14,R,ugm-3 (GRAV EQ),16,R,ugm-3,36,R,ugm-3,61,R,ugm-3,44,R,ugm-3,3,R,ugm-3
03-01-1994,18:00,0.7,R,mgm-3,23,R,ugm-3 (GRAV EQ),18,R,ugm-3,42,R,ugm-3,69,R,ugm-3,42,R,ugm-3,8,R,ugm-3
03-01-1994,19:00,0.6,R,mgm-3,12,R,ugm-3 (GRAV EQ),6,R,ugm-3,21,R,ugm-3,31,R,ugm-3,56,R,ugm-3,8,R,ugm-3
03-01-1994,20:00,0.3,R,mgm-3,16,R,ugm-3 (GRAV EQ),5,R,ugm-3,21,R,ugm-3,29,R,ugm-3,52,R,ugm-3,3,R,ugm-3
03-01-1994,21:00,0.3,R,mgm-3,18,R,ugm-3 (GRAV EQ),4,R,ugm-3,27,R,ugm-3,32,R,ugm-3,44,R,ugm-3,3,R,ugm-3
03-01-1994,22:00,0.7,R,mgm-3,21,R,ugm-3 (GRAV EQ),23,R,ugm-3,40,R,ugm-3,74,R,ugm-3,34,R,ugm-3,3,R,ugm-3
03-01-1994,23:00,0.6,R,mgm-3,22,R,ugm-3 (GRAV EQ),4,R,ugm-3,23,R,ugm-3,29,R,ugm-3,48,R,ugm-3,3,R,ugm-3
03-01-1994,24:00,0.5,R,mgm-3,14,R,ugm-3 (GRAV EQ),9,R,ugm-3,29,R,ugm-3,42,R,ugm-3,44,R,ugm-3,138,R,ugm-3
04-01-1994,01:00,0.8,R,mgm-3,14,R,ugm-3 (GRAV EQ),28,R,ugm-3,46,R,ugm-3,88,R,ugm-3,26,R,ugm-3,56,R,ugm-3
04-01-1994,02:00,0.8,R,mgm-3,12,R,ugm-3 (GRAV EQ),11,R,ugm-3,52,R,ugm-3,69,R,ugm-3,22,R,ugm-3,5,R,ugm-3
04-01-1994,03:00,0.6,R,mgm-3,17,R,ugm-3 (GRAV EQ),6,R,ugm-3,31,R,ugm-3,40,R,ugm-3,38,R,ugm-3,11,R,ugm-3
04-01-1994,04:00,0.3,R,mgm-3,14,R,ugm-3 (GRAV EQ),3,R,ugm-3,21,R,ugm-3,25,R,ugm-3,48,R,ugm-3,5,R,ugm-3
04-01-1994,05:00,0.2,R,mgm-3,13,R,ugm-3 (GRAV EQ),3,R,ugm-3,25,R,ugm-3,29,R,ugm-3,46,R,ugm-3,5,R,ugm-3
04-01-1994,06:00,0.2,R,mgm-3,14,R,ugm-3 (GRAV EQ),4,R,ugm-3,23,R,ugm-3,29,R,ugm-3,46,R,ugm-3,45,R,ugm-3
04-01-1994,07:00,0.3,R,mgm-3,13,R,ugm-3 (GRAV EQ),6,R,ugm-3,38,R,ugm-3,48,R,ugm-3,36,R,ugm-3,67,R,ugm-3
04-01-1994,08:00,0.8,R,mgm-3,22,R,ugm-3 (GRAV EQ),31,R,ugm-3,65,R,ugm-3,113,R,ugm-3,14,R,ugm-3,35,R,ugm-3
04-01-1994,09:00,1.0,R,mgm-3,16,R,ugm-3 (GRAV EQ),35,R,ugm-3,74,R,ugm-3,128,R,ugm-3,10,R,ugm-3,29,R,ugm-3
04-01-1994,10:00,1.0,R,mgm-3,17,R,ugm-3 (GRAV EQ),45,R,ugm-3,73,R,ugm-3,141,R,ugm-3,14,R,ugm-3,13,R,ugm-3
04-01-1994,11:00,0.8,R,mgm-3,26,R,ugm-3 (GRAV EQ),35,R,ugm-3,67,R,ugm-3,120,R,ugm-3,20,R,ugm-3,19,R,ugm-3
04-01-1994,12:00,0.8,R,mgm-3,21,R,ugm-3 (GRAV EQ),34,R,ugm-3,57,R,ugm-3,109,R,ugm-3,24,R,ugm-3,21,R,ugm-3
04-01-1994,13:00,0.9,R,mgm-3,23,R,ugm-3 (GRAV EQ),41,R,ugm-3,57,R,ugm-3,120,R,ugm-3,22,R,ugm-3,27,R,ugm-3
04-01-1994,14:00,0.9,R,mgm-3,23,R,ugm-3 (GRAV EQ),55,R,ugm-3,61,R,ugm-3,145,R,ugm-3,20,R,ugm-3,16,R,ugm-3
04-01-1994,15:00,0.9,R,mgm-3,22,R,ugm-3 (GRAV EQ),51,R,ugm-3,65,R,ugm-3,143,R,ugm-3,18,R,ugm-3,16,R,ugm-3
04-01-1994,16:00,1.0,R,mgm-3,23,R,ugm-3 (GRAV EQ),83,R,ugm-3,67,R,ugm-3,193,R,ugm-3,10,R,ugm-3,16,R,ugm-3
04-01-1994,17:00,1.3,R,mgm-3,38,R,ugm-3 (GRAV EQ),106,R,ugm-3,80,R,ugm-3,243,R,ugm-3,4,R,ugm-3,19,R,ugm-3
04-01-1994,18:00,1.6,R,mgm-3,47,R,ugm-3 (GRAV EQ),105,R,ugm-3,76,R,ugm-3,237,R,ugm-3,4,R,ugm-3,35,R,ugm-3
04-01-1994,19:00,0.9,R,mgm-3,35,R,ugm-3 (GRAV EQ),61,R,ugm-3,73,R,ugm-3,166,R,ugm-3,2,R,ugm-3,21,R,ugm-3
04-01-1994,20:00,0.5,R,mgm-3,26,R,ugm-3 (GRAV EQ),19,R,ugm-3,57,R,ugm-3,86,R,ugm-3,14,R,ugm-3,21,R,ugm-3
04-01-1994,21:00,0.5,R,mgm-3,22,R,ugm-3 (GRAV EQ),11,R,ugm-3,53,R,ugm-3,71,R,ugm-3,14,R,ugm-3,21,R,ugm-3
04-01-1994,22:00,0.5,R,mgm-3,20,R,ugm-3 (GRAV EQ),8,R,ugm-3,46,R,ugm-3,57,R,ugm-3,26,R,ugm-3,56,R,ugm-3
04-01-1994,23:00,0.3,R,mgm-3,13,R,ugm-3 (GRAV EQ),6,R,ugm-3,36,R,ugm-3,46,R,ugm-3,30,R,ugm-3,48,R,ugm-3
04-01-1994,24:00,0.3,R,mgm-3,12,R,ugm-3 (GRAV EQ),4,R,ugm-3,29,R,ugm-3,34,R,ugm-3,40,R,ugm-3,13,R,ugm-3
05-01-1994,01:00,0.2,R,mgm-3,10,R,ugm-3 (GRAV EQ),3,R,ugm-3,19,R,ugm-3,23,R,ugm-3,44,R,ugm-3,5,R,ugm-3
05-01-1994,02:00,0.3,R,mgm-3,4,R,ugm-3 (GRAV EQ),6,R,ugm-3,32,R,ugm-3,42,R,ugm-3,44,R,ugm-3,5,R,ugm-3
05-01-1994,03:00,0.2,R,mgm-3,3,R,ugm-3 (GRAV EQ),5,R,ugm-3,17,R,ugm-3,25,R,ugm-3,58,R,ugm-3,3,R,ugm-3
05-01-1994,04:00,0.2,R,mgm-3,10,R,ugm-3 (GRAV EQ),8,R,ugm-3,46,R,ugm-3,57,R,ugm-3,34,R,ugm-3,5,R,ugm-3
05-01-1994,05:00,0.1,R,mgm-3,8,R,ugm-3 (GRAV EQ),3,R,ugm-3,17,R,ugm-3,21,R,ugm-3,56,R,ugm-3,16,R,ugm-3
05-01-1994,06:00,0.1,R,mgm-3,8,R,ugm-3 (GRAV EQ),4,R,ugm-3,15,R,ugm-3,21,R,ugm-3,60,R,ugm-3,35,R,ugm-3
05-01-1994,07:00,0.3,R,mgm-3,7,R,ugm-3 (GRAV EQ),5,R,ugm-3,17,R,ugm-3,25,R,ugm-3,56,R,ugm-3,11,R,ugm-3
05-01-1994,08:00,0.6,R,mgm-3,13,R,ugm-3 (GRAV EQ),10,R,ugm-3,32,R,ugm-3,48,R,ugm-3,44,R,ugm-3,8,R,ugm-3
05-01-1994,09:00,1.2,R,mgm-3,29,R,ugm-3 (GRAV EQ),24,R,ugm-3,57,R,ugm-3,94,R,ugm-3,24,R,ugm-3,13,R,ugm-3
05-01-1994,10:00,1.3,R,mgm-3,30,R,ugm-3 (GRAV EQ),20,R,ugm-3,48,R,ugm-3,78,R,ugm-3,36,R,ugm-3,8,R,ugm-3
05-01-1994,11:00,1.0,R,mgm-3,27,R,ugm-3 (GRAV EQ),19,R,ugm-3,40,R,ugm-3,69,R,ugm-3,40,R,ugm-3,8,R,ugm-3
05-01-1994,12:00,0.8,R,mgm-3,36,R,ugm-3 (GRAV EQ),24,R,ugm-3,38,R,ugm-3,74,R,ugm-3,42,R,ugm-3,16,R,ugm-3
05-01-1994,13:00,1.0,R,mgm-3,26,R,ugm-3 (GRAV EQ),23,R,ugm-3,48,R,ugm-3,82,R,ugm-3,40,R,ugm-3,19,R,ugm-3
05-01-1994,14:00,0.9,R,mgm-3,21,R,ugm-3 (GRAV EQ),24,R,ugm-3,50,R,ugm-3,86,R,ugm-3,36,R,ugm-3,16,R,ugm-3
05-01-1994,15:00,0.8,R,mgm-3,34,R,ugm-3 (GRAV EQ),30,R,ugm-3,50,R,ugm-3,96,R,ugm-3,36,R,ugm-3,16,R,ugm-3
05-01-1994,16:00,0.9,R,mgm-3,46,R,ugm-3 (GRAV EQ),43,R,ugm-3,57,R,ugm-3,122,R,ugm-3,28,R,ugm-3,21,R,ugm-3
05-01-1994,17:00,0.9,R,mgm-3,35,R,ugm-3 (GRAV EQ),40,R,ugm-3,67,R,ugm-3,128,R,ugm-3,22,R,ugm-3,19,R,ugm-3
05-01-1994,18:00,2.9,R,mgm-3,61,R,ugm-3 (GRAV EQ),193,R,ugm-3,96,R,ugm-3,390,R,ugm-3,10,R,ugm-3,37,R,ugm-3
05-01-1994,19:00,0.9,R,mgm-3,40,R,ugm-3 (GRAV EQ),51,R,ugm-3,73,R,ugm-3,151,R,ugm-3,8,R,ugm-3,19,R,ugm-3
05-01-1994,20:00,1.6,R,mgm-3,52,R,ugm-3 (GRAV EQ),104,R,ugm-3,90,R,ugm-3,248,R,ugm-3,6,R,ugm-3,13,R,ugm-3
05-01-1994,21:00,1.4,R,mgm-3,52,R,ugm-3 (GRAV EQ),144,R,ugm-3,82,R,ugm-3,302,R,ugm-3,6,R,ugm-3,16,R,ugm-3
05-01-1994,22:00,0.8,R,mgm-3,52,R,ugm-3 (GRAV EQ),95,R,ugm-3,59,R,ugm-3,204,R,ugm-3,16,R,ugm-3,13,R,ugm-3
05-01-1994,23:00,1.0,R,mgm-3,5,R,ugm-3 (GRAV EQ),14,R,ugm-3,52,R,ugm-3,73,R,ugm-3,24,R,ugm-3,3,R,ugm-3
05-01-1994,24:00,1.2,R,mgm-3,7,R,ugm-3 (GRAV EQ),35,R,ugm-3,69,R,ugm-3,122,R,ugm-3,10,R,ugm-3,5,R,ugm-3
06-01-1994,01:00,0.8,R,mgm-3,10,R,ugm-3 (GRAV EQ),49,R,ugm-3,78,R,ugm-3,153,R,ugm-3,6,R,ugm-3,16,R,ugm-3
06-01-1994,02:00,0.6,R,mgm-3,16,R,ugm-3 (GRAV EQ),18,R,ugm-3,76,R,ugm-3,103,R,ugm-3,6,R,ugm-3,13,R,ugm-3
06-01-1994,03:00,0.6,R,mgm-3,18,R,ugm-3 (GRAV EQ),31,R,ugm-3,73,R,ugm-3,120,R,ugm-3,4,R,ugm-3,8,R,ugm-3
06-01-1994,04:00,0.3,R,mgm-3,18,R,ugm-3 (GRAV EQ),44,R,ugm-3,61,R,ugm-3,128,R,ugm-3,6,R,ugm-3,16,R,ugm-3
06-01-1994,05:00,0.3,R,mgm-3,21,R,ugm-3 (GRAV EQ),41,R,ugm-3,67,R,ugm-3,130,R,ugm-3,6,R,ugm-3,19,R,ugm-3
06-01-1994,06:00,0.7,R,mgm-3,22,R,ugm-3 (GRAV EQ),85,R,ugm-3,65,R,ugm-3,195,R,ugm-3,4,R,ugm-3,27,R,ugm-3
06-01-1994,07:00,0.9,R,mgm-3,31,R,ugm-3 (GRAV EQ),135,R,ugm-3,61,R,ugm-3,267,R,ugm-3,4,R,ugm-3,24,R,ugm-3
06-01-1994,08:00,1.5,R,mgm-3,43,R,ugm-3 (GRAV EQ),188,R,ugm-3,80,R,ugm-3,367,R,ugm-3,8,R,ugm-3,19,R,ugm-3
06-01-1994,09:00,1.9,R,mgm-3,39,R,ugm-3 (GRAV EQ),176,R,ugm-3,78,R,ugm-3,348,R,ugm-3,8,R,ugm-3,24,R,ugm-3
06-01-1994,10:00,1.3,R,mgm-3,26,R,ugm-3 (GRAV EQ),91,R,ugm-3,65,R,ugm-3,204,R,ugm-3,8,R,ugm-3,13,R,ugm-3
06-01-1994,11:00,1.0,R,mgm-3,23,R,ugm-3 (GRAV EQ),,,,,,,,,,,,,,,
06-01-1994,12:00,,,,25,R,ugm-3 (GRAV EQ),121,R,ugm-3,71,R,ugm-3,256,R,ugm-3,,,,,,
06-01-1994,13:00,,,,34,R,ugm-3 (GRAV EQ),105,R,ugm-3,69,R,ugm-3,229,R,ugm-3,8,R,ugm-3,24,R,ugm-3
06-01-1994,14:00,1.2,R,mgm-3,34,R,ugm-3 (GRAV EQ),98,R,ugm-3,74,R,ugm-3,223,R,ugm-3,10,R,ugm-3,21,R,ugm-3
06-01-1994,15:00,1.3,R,mgm-3,47,R,ugm-3 (GRAV EQ),144,R,ugm-3,86,R,ugm-3,306,R,ugm-3,6,R,ugm-3,35,R,ugm-3
06-01-1994,16:00,1.2,R,mgm-3,81,R,ugm-3 (GRAV EQ),121,R,ugm-3,74,R,ugm-3,260,R,ugm-3,6,R,ugm-3,24,R,ugm-3
06-01-1994,17:00,1.5,R,mgm-3,61,R,ugm-3 (GRAV EQ),129,R,ugm-3,80,R,ugm-3,277,R,ugm-3,6,R,ugm-3,21,R,ugm-3
06-01-1994,18:00,1.9,R,mgm-3,52,R,ugm-3 (GRAV EQ),136,R,ugm-3,86,R,ugm-3,294,R,ugm-3,6,R,ugm-3,21,R,ugm-3
06-01-1994,19:00,1.9,R,mgm-3,60,R,ugm-3 (GRAV EQ),193,R,ugm-3,73,R,ugm-3,367,R,ugm-3,6,R,ugm-3,35,R,ugm-3
06-01-1994,20:00,2.2,R,mgm-3,62,R,ugm-3 (GRAV EQ),243,R,ugm-3,84,R,ugm-3,455,R,ugm-3,8,R,ugm-3,51,R,ugm-3
06-01-1994,21:00,1.4,R,mgm-3,46,R,ugm-3 (GRAV EQ),114,R,ugm-3,80,R,ugm-3,254,R,ugm-3,4,R,ugm-3,29,R,ugm-3
06-01-1994,22:00,1.0,R,mgm-3,34,R,ugm-3 (GRAV EQ),84,R,ugm-3,84,R,ugm-3,212,R,ugm-3,4,R,ugm-3,27,R,ugm-3
06-01-1994,23:00,0.7,R,mgm-3,30,R,ugm-3 (GRAV EQ),24,R,ugm-3,65,R,ugm-3,101,R,ugm-3,14,R,ugm-3,19,R,ugm-3
06-01-1994,24:00,0.7,R,mgm-3,33,R,ugm-3 (GRAV EQ),11,R,ugm-3,63,R,ugm-3,80,R,ugm-3,12,R,ugm-3,19,R,ugm-3
07-01-1994,01:00,0.8,R,mgm-3,33,R,ugm-3 (GRAV EQ),21,R,ugm-3,67,R,ugm-3,99,R,ugm-3,6,R,ugm-3,40,R,ugm-3
07-01-1994,02:00,0.6,R,mgm-3,31,R,ugm-3 (GRAV EQ),13,R,ugm-3,59,R,ugm-3,78,R,ugm-3,6,R,ugm-3,51,R,ugm-3
07-01-1994,03:00,0.8,R,mgm-3,34,R,ugm-3 (GRAV EQ),54,R,ugm-3,59,R,ugm-3,141,R,ugm-3,8,R,ugm-3,32,R,ugm-3
07-01-1994,04:00,0.5,R,mgm-3,18,R,ugm-3 (GRAV EQ),6,R,ugm-3,36,R,ugm-3,46,R,ugm-3,20,R,ugm-3,13,R,ugm-3
07-01-1994,05:00,0.3,R,mgm-3,20,R,ugm-3 (GRAV EQ),11,R,ugm-3,42,R,ugm-3,59,R,ugm-3,12,R,ugm-3,19,R,ugm-3
07-01-1994,06:00,0.3,R,mgm-3,21,R,ugm-3 (GRAV EQ),8,R,ugm-3,40,R,ugm-3,52,R,ugm-3,12,R,ugm-3,19,R,ugm-3
07-01-1994,07:00,0.8,R,mgm-3,40,R,ugm-3 (GRAV EQ),91,R,ugm-3,53,R,ugm-3,193,R,ugm-3,10,R,ugm-3,29,R,ugm-3
07-01-1994,08:00,2.9,R,mgm-3,87,R,ugm-3 (GRAV EQ),438,R,ugm-3,84,R,ugm-3,753,R,ugm-3,10,R,ugm-3,37,R,ugm-3
07-01-1994,09:00,6.8,R,mgm-3,130,R,ugm-3 (GRAV EQ),858,R,ugm-3,120,R,ugm-3,1431,R,ugm-3,16,R,ugm-3,53,R,ugm-3
07-01-1994,10:00,5.5,R,mgm-3,104,R,ugm-3 (GRAV EQ),543,R,ugm-3,115,R,ugm-3,944,R,ugm-3,10,R,ugm-3,53,R,ugm-3
07-01-1994,11:00,2.0,R,mgm-3,48,R,ugm-3 (GRAV EQ),213,R,ugm-3,57,R,ugm-3,382,R,ugm-3,4,R,ugm-3,37,R,ugm-3
07-01-1994,12:00,2.0,R,mgm-3,36,R,ugm-3 (GRAV EQ),199,R,ugm-3,73,R,ugm-3,376,R,ugm-3,6,R,ugm-3,43,R,ugm-3
07-01-1994,13:00,1.5,R,mgm-3,36,R,ugm-3 (GRAV EQ),130,R,ugm-3,67,R,ugm-3,265,R,ugm-3,8,R,ugm-3,48,R,ugm-3
07-01-1994,14:00,1.0,R,mgm-3,39,R,ugm-3 (GRAV EQ),95,R,ugm-3,65,R,ugm-3,210,R,ugm-3,10,R,ugm-3,61,R,ugm-3
07-01-1994,15:00,1.3,R,mgm-3,48,R,ugm-3 (GRAV EQ),74,R,ugm-3,65,R,ugm-3,178,R,ugm-3,14,R,ugm-3,72,R,ugm-3
07-01-1994,16:00,1.3,R,mgm-3,30,R,ugm-3 (GRAV EQ),95,R,ugm-3,69,R,ugm-3,214,R,ugm-3,8,R,ugm-3,37,R,ugm-3
07-01-1994,17:00,2.0,R,mgm-3,42,R,ugm-3 (GRAV EQ),183,R,ugm-3,90,R,ugm-3,369,R,ugm-3,6,R,ugm-3,32,R,ugm-3
07-01-1994,18:00,10.1,R,mgm-3,140,R,ugm-3 (GRAV EQ),838,R,ugm-3,153,R,ugm-3,1433,R,ugm-3,24,R,ugm-3,67,R,ugm-3
07-01-1994,19:00,7.8,R,mgm-3,151,R,ugm-3 (GRAV EQ),785,R,ugm-3,118,R,ugm-3,1318,R,ugm-3,16,R,ugm-3,74,R,ugm-3
07-01-1994,20:00,6.8,R,mgm-3,140,R,ugm-3 (GRAV EQ),831,R,ugm-3,128,R,ugm-3,1398,R,ugm-3,18,R,ugm-3,61,R,ugm-3
07-01-1994,21:00,4.9,R,mgm-3,118,R,ugm-3 (GRAV EQ),598,R,ugm-3,103,R,ugm-3,1016,R,ugm-3,14,R,ugm-3,48,R,ugm-3
07-01-1994,22:00,3.2,R,mgm-3,90,R,ugm-3 (GRAV EQ),459,R,ugm-3,88,R,ugm-3,789,R,ugm-3,10,R,ugm-3,40,R,ugm-3
07-01-1994,23:00,4.9,R,mgm-3,130,R,ugm-3 (GRAV EQ),636,R,ugm-3,111,R,ugm-3,1083,R,ugm-3,14,R,ugm-3,48,R,ugm-3
07-01-1994,24:00,2.9,R,mgm-3,101,R,ugm-3 (GRAV EQ),431,R,ugm-3,88,R,ugm-3,747,R,ugm-3,10,R,ugm-3,37,R,ugm-3
08-01-1994,01:00,1.9,R,mgm-3,74,R,ugm-3 (GRAV EQ),246,R,ugm-3,67,R,ugm-3,443,R,ugm-3,6,R,ugm-3,24,R,ugm-3
08-01-1994,02:00,1.7,R,mgm-3,69,R,ugm-3 (GRAV EQ),209,R,ugm-3,63,R,ugm-3,382,R,ugm-3,6,R,ugm-3,21,R,ugm-3
08-01-1994,03:00,1.7,R,mgm-3,66,R,ugm-3 (GRAV EQ),210,R,ugm-3,63,R,ugm-3,384,R,ugm-3,6,R,ugm-3,24,R,ugm-3
08-01-1994,04:00,1.4,R,mgm-3,62,R,ugm-3 (GRAV EQ),229,R,ugm-3,61,R,ugm-3,411,R,ugm-3,6,R,ugm-3,24,R,ugm-3
08-01-1994,05:00,0.9,R,mgm-3,43,R,ugm-3 (GRAV EQ),116,R,ugm-3,53,R,ugm-3,231,R,ugm-3,4,R,ugm-3,19,R,ugm-3
08-01-1994,06:00,0.8,R,mgm-3,43,R,ugm-3 (GRAV EQ),103,R,ugm-3,59,R,ugm-3,216,R,ugm-3,4,R,ugm-3,29,R,ugm-3
08-01-1994,07:00,0.7,R,mgm-3,35,R,ugm-3 (GRAV EQ),105,R,ugm-3,57,R,ugm-3,218,R,ugm-3,4,R,ugm-3,29,R,ugm-3
08-01-1994,08:00,1.3,R,mgm-3,43,R,ugm-3 (GRAV EQ),211,R,ugm-3,73,R,ugm-3,395,R,ugm-3,4,R,ugm-3,29,R,ugm-3
08-01-1994,09:00,2.6,R,mgm-3,60,R,ugm-3 (GRAV EQ),326,R,ugm-3,63,R,ugm-3,562,R,ugm-3,8,R,ugm-3,37,R,ugm-3
08-01-1994,10:00,2.9,R,mgm-3,68,R,ugm-3 (GRAV EQ),310,R,ugm-3,84,R,ugm-3,558,R,ugm-3,8,R,ugm-3,40,R,ugm-3
08-01-1994,11:00,3.6,R,mgm-3,85,R,ugm-3 (GRAV EQ),384,R,ugm-3,94,R,ugm-3,680,R,ugm-3,10,R,ugm-3,40,R,ugm-3
08-01-1994,12:00,3.9,R,mgm-3,65,R,ugm-3 (GRAV EQ),364,R,ugm-3,90,R,ugm-3,646,R,ugm-3,10,R,ugm-3,43,R,ugm-3
08-01-1994,13:00,4.6,R,mgm-3,64,R,ugm-3 (GRAV EQ),386,R,ugm-3,67,R,ugm-3,657,R,ugm-3,8,R,ugm-3,37,R,ugm-3
08-01-1994,14:00,5.0,R,mgm-3,62,R,ugm-3 (GRAV EQ),391,R,ugm-3,73,R,ugm-3,670,R,ugm-3,8,R,ugm-3,32,R,ugm-3
08-01-1994,15:00,4.3,R,mgm-3,61,R,ugm-3 (GRAV EQ),330,R,ugm-3,61,R,ugm-3,565,R,ugm-3,8,R,ugm-3,29,R,ugm-3
08-01-1994,16:00,3.8,R,mgm-3,51,R,ugm-3 (GRAV EQ),255,R,ugm-3,99,R,ugm-3,489,R,ugm-3,8,R,ugm-3,24,R,ugm-3
08-01-1994,17:00,3.4,R,mgm-3,47,R,ugm-3 (GRAV EQ),244,R,ugm-3,90,R,ugm-3,462,R,ugm-3,8,R,ugm-3,21,R,ugm-3
08-01-1994,18:00,3.4,R,mgm-3,46,R,ugm-3 (GRAV EQ),234,R,ugm-3,78,R,ugm-3,435,R,ugm-3,8,R,ugm-3,19,R,ugm-3
08-01-1994,19:00,1.7,R,mgm-3,38,R,ugm-3 (GRAV EQ),136,R,ugm-3,53,R,ugm-3,262,R,ugm-3,12,R,ugm-3,13,R,ugm-3
08-01-1994,20:00,0.8,R,mgm-3,25,R,ugm-3 (GRAV EQ),61,R,ugm-3,50,R,ugm-3,143,R,ugm-3,14,R,ugm-3,8,R,ugm-3
08-01-1994,21:00,0.7,R,mgm-3,12,R,ugm-3 (GRAV EQ),39,R,ugm-3,61,R,ugm-3,120,R,ugm-3,20,R,ugm-3,8,R,ugm-3
08-01-1994,22:00,0.6,R,mgm-3,9,R,ugm-3 (GRAV EQ),21,R,ugm-3,44,R,ugm-3,76,R,ugm-3,24,R,ugm-3,8,R,ugm-3
08-01-1994,23:00,0.7,R,mgm-3,10,R,ugm-3 (GRAV EQ),49,R,ugm-3,59,R,ugm-3,134,R,ugm-3,22,R,ugm-3,8,R,ugm-3
08-01-1994,24:00,0.5,R,mgm-3,12,R,ugm-3 (GRAV EQ),29,R,ugm-3,42,R,ugm-3,86,R,ugm-3,20,R,ugm-3,8,R,ugm-3
09-01-1994,01:00,0.7,R,mgm-3,9,R,ugm-3 (GRAV EQ),15,R,ugm-3,40,R,ugm-3,63,R,ugm-3,20,R,ugm-3,5,R,ugm-3
09-01-1994,02:00,0.5,R,mgm-3,16,R,ugm-3 (GRAV EQ),10,R,ugm-3,32,R,ugm-3,48,R,ugm-3,24,R,ugm-3,8,R,ugm-3
09-01-1994,03:00,0.6,R,mgm-3,21,R,ugm-3 (GRAV EQ),25,R,ugm-3,52,R,ugm-3,90,R,ugm-3,14,R,ugm-3,8,R,ugm-3
09-01-1994,04:00,0.2,R,mgm-3,9,R,ugm-3 (GRAV EQ),3,R,ugm-3,23,R,ugm-3,27,R,ugm-3,32,R,ugm-3,8,R,ugm-3
09-01-1994,05:00,0.2,R,mgm-3,10,R,ugm-3 (GRAV EQ),1,R,ugm-3,23,R,ugm-3,25,R,ugm-3,36,R,ugm-3,5,R,ugm-3
09-01-1994,06:00,0.2,R,mgm-3,5,R,ugm-3 (GRAV EQ),1,R,ugm-3,23,R,ugm-3,25,R,ugm-3,36,R,ugm-3,5,R,ugm-3
09-01-1994,07:00,0.6,R,mgm-3,5,R,ugm-3 (GRAV EQ),9,R,ugm-3,40,R,ugm-3,53,R,ugm-3,22,R,ugm-3,5,R,ugm-3
09-01-1994,08:00,0.9,R,mgm-3,10,R,ugm-3 (GRAV EQ),8,R,ugm-3,42,R,ugm-3,53,R,ugm-3,18,R,ugm-3,5,R,ugm-3
09-01-1994,09:00,1.4,R,mgm-3,23,R,ugm-3 (GRAV EQ),93,R,ugm-3,57,R,ugm-3,199,R,ugm-3,16,R,ugm-3,8,R,ugm-3
09-01-1994,10:00,0.8,R,mgm-3,12,R,ugm-3 (GRAV EQ),5,R,ugm-3,38,R,ugm-3,46,R,ugm-3,42,R,ugm-3,5,R,ugm-3
09-01-1994,11:00,0.7,R,mgm-3,31,R,ugm-3 (GRAV EQ),15,R,ugm-3,46,R,ugm-3,69,R,ugm-3,40,R,ugm-3,5,R,ugm-3
09-01-1994,12:00,0.7,R,mgm-3,34,R,ugm-3 (GRAV EQ),31,R,ugm-3,44,R,ugm-3,92,R,ugm-3,34,R,ugm-3,8,R,ugm-3
09-01-1994,13:00,0.8,R,mgm-3,23,R,ugm-3 (GRAV EQ),34,R,ugm-3,55,R,ugm-3,107,R,ugm-3,32,R,ugm-3,8,R,ugm-3
09-01-1994,14:00,0.8,R,mgm-3,22,R,ugm-3 (GRAV EQ),35,R,ugm-3,40,R,ugm-3,94,R,ugm-3,40,R,ugm-3,8,R,ugm-3
09-01-1994,15:00,0.5,R,mgm-3,23,R,ugm-3 (GRAV EQ),31,R,ugm-3,38,R,ugm-3,86,R,ugm-3,40,R,ugm-3,8,R,ugm-3
09-01-1994,16:00,0.5,R,mgm-3,16,R,ugm-3 (GRAV EQ),23,R,ugm-3,40,R,ugm-3,74,R,ugm-3,46,R,ugm-3,8,R,ugm-3
09-01-1994,17:00,0.6,R,mgm-3,7,R,ugm-3 (GRAV EQ),21,R,ugm-3,29,R,ugm-3,61,R,ugm-3,44,R,ugm-3,3,R,ugm-3
09-01-1994,18:00,0.3,R,mgm-3,8,R,ugm-3 (GRAV EQ),15,R,ugm-3,40,R,ugm-3,63,R,ugm-3,46,R,ugm-3,5,R,ugm-3
09-01-1994,19:00,0.3,R,mgm-3,12,R,ugm-3 (GRAV EQ),14,R,ugm-3,27,R,ugm-3,48,R,ugm-3,44,R,ugm-3,8,R,ugm-3
09-01-1994,20:00,0.5,R,mgm-3,12,R,ugm-3 (GRAV EQ),5,R,ugm-3,19,R,ugm-3,27,R,ugm-3,52,R,ugm-3,5,R,ugm-3
09-01-1994,21:00,0.9,R,mgm-3,5,R,ugm-3 (GRAV EQ),3,R,ugm-3,13,R,ugm-3,17,R,ugm-3,74,R,ugm-3,5,R,ugm-3
09-01-1994,22:00,0.7,R,mgm-3,9,R,ugm-3 (GRAV EQ),4,R,ugm-3,19,R,ugm-3,25,R,ugm-3,66,R,ugm-3,5,R,ugm-3
09-01-1994,23:00,0.7,R,mgm-3,14,R,ugm-3 (GRAV EQ),5,R,ugm-3,27,R,ugm-3,34,R,ugm-3,58,R,ugm-3,5,R,ugm-3
09-01-1994,24:00,0.5,R,mgm-3,29,R,ugm-3 (GRAV EQ),16,R,ugm-3,44,R,ugm-3,69,R,ugm-3,40,R,ugm-3,5,R,ugm-3
10-01-1994,01:00,0.3,R,mgm-3,34,R,ugm-3 (GRAV EQ),3,R,ugm-3,23,R,ugm-3,27,R,ugm-3,60,R,ugm-3,24,R,ugm-3
10-01-1994,02:00,0.2,R,mgm-3,35,R,ugm-3 (GRAV EQ),3,R,ugm-3,32,R,ugm-3,36,R,ugm-3,52,R,ugm-3,8,R,ugm-3
10-01-1994,03:00,0.2,R,mgm-3,44,R,ugm-3 (GRAV EQ),8,R,ugm-3,44,R,ugm-3,55,R,ugm-3,36,R,ugm-3,8,R,ugm-3
10-01-1994,04:00,0.3,R,mgm-3,34,R,ugm-3 (GRAV EQ),15,R,ugm-3,50,R,ugm-3,73,R,ugm-3,32,R,ugm-3,8,R,ugm-3
10-01-1994,05:00,0.3,R,mgm-3,40,R,ugm-3 (GRAV EQ),25,R,ugm-3,63,R,ugm-3,101,R,ugm-3,16,R,ugm-3,8,R,ugm-3
10-01-1994,06:00,0.8,R,mgm-3,29,R,ugm-3 (GRAV EQ),39,R,ugm-3,63,R,ugm-3,122,R,ugm-3,18,R,ugm-3,8,R,ugm-3
10-01-1994,07:00,0.8,R,mgm-3,42,R,ugm-3 (GRAV EQ),39,R,ugm-3,74,R,ugm-3,134,R,ugm-3,20,R,ugm-3,8,R,ugm-3
10-01-1994,08:00,1.5,R,mgm-3,47,R,ugm-3 (GRAV EQ),131,R,ugm-3,109,R,ugm-3,309,R,ugm-3,10,R,ugm-3,19,R,ugm-3
10-01-1994,09:00,1.9,R,mgm-3,60,R,ugm-3 (GRAV EQ),166,R,ugm-3,82,R,ugm-3,336,R,ugm-3,10,R,ugm-3,29,R,ugm-3
10-01-1994,10:00,2.4,R,mgm-3,73,R,ugm-3 (GRAV EQ),279,R,ugm-3,99,R,ugm-3,525,R,ugm-3,8,R,ugm-3,32,R,ugm-3